Weather in Kriva Palanka

North Macedonia     42°11′50″N   22°19′17″E
temp.,
°C
wind,
m/s
gust,
m/s
humid.,
%
clouds,
%
prec.,
mm/h
press.,
hPa
HPBL,
m
27 november, sat
sat2701:00+6ssw4128187 0.0 1003737
04:00+5s514858 0.0 1003552
07:00+5s368562 0.0 1005158
10:00+9s51164100 0.0 10041046
13:00+10s61061100 0.0 10031113
16:00+6sse3380100 0.0 100448
19:00+6se3484100 0.0 100565
22:00+5sse228668 0.0 100524
28 november, sun
sun2801:00+4sse229045 0.0 100417
04:00+4s229457 0.0 100531
07:00+4sse229498 0.0 100531
10:00+8s3769100 0.0 1004846
13:00+10s71158100 0.0 10011298
16:00+7sse4674100 0.0 1001190
19:00+6sse41287100 0.4 999813
22:00+7ssw41388100 2.2 998911
29 november, mon
mon2901:00+7s41292100 2.9 9971098
04:00+7ssw6128686 0.4 996834
07:00+5w4797100 3.8 998614
10:00+2ne119699 4.6 1002110
13:00+5wnw1276100 5.1 999370
16:00+4ssw1286100 1.3 100066
19:00+3se3493100 1.7 1001147
22:00+3s238899 0.0 1001126
30 november, tue
tue3001:00+3ssw2285100 0.0 100137
04:00+2w1299100 1.5 1002377
07:00−2n3491100 5.0 1006194
10:00−1n357360 0.0 1010693
13:00−2nnw4769100 0.0 1012875
16:00−4nnw22808 0.0 101679
19:00−6n22866 0.0 101966
22:00−6n22856 0.0 102074
1 december, wed
wed101:00−6nne11845 0.0 102142
04:00−5se117272 0.0 102110
07:00−5ssw11676 0.0 102114
10:000sw22513 0.0 1020306
13:00+2wsw22485 0.0 1018399
16:00−2s11671 0.0 101910
19:00−2s11580 0.0 101910
22:00−2s11590 0.0 101811